Погода в Бургун-Маджарах

Россия / Ставропольский край     44°49′45″N   44°28′39″E
темп.,
°C
ветер,
м/с
пор.,
м/с
влажн.,
%
обл.,
%
осадки,
мм/ч
давл.,
гПа
погр.,
м
5 августа, чт
чт500:00+29с3841100 0.0 1013265
03:00+26сз4750100 0.0 1013156
06:00+25ссз5960100 0.0 1014314
09:00+30ссв464076 0.4 1014885
12:00+35св55285 0.0 10122324
15:00+37св542466 0.0 10113082
18:00+36св562596 0.0 10101426
21:00+31всв8133195 0.0 1011537
6 августа, пт
пт600:00+27всв510410 0.0 1011237
03:00+26в512410 0.0 1010322
06:00+26в413380 0.0 1011439
09:00+32в810290 0.0 10111067
12:00+36в99250 0.0 10092411
15:00+37вюв99220 0.0 10072478
18:00+34в910280 0.0 10061173
21:00+27в715480 0.0 1007502
7 августа, сб
сб700:00+25в61459100 0.0 1007385
03:00+23всв3966100 0.0 1007236
06:00+24всв5125915 0.0 1006395
09:00+31в79398 0.0 10061033
12:00+37вюв782399 0.0 10041716
15:00+41в99120 0.0 10013284
18:00+35в101326100 0.0 1003842
21:00+29в71340100 0.0 1005397
8 августа, вс
вс800:00+26всв3854100 0.0 1005271
03:00+25с1263100 0.2 100630
06:00+26сз485962 0.0 1007299
09:00+31ссз78373 0.0 10081049
12:00+35сз78305 0.0 10081672
15:00+36ссз77265 0.0 10082105
18:00+35ссз462711 0.0 10082035
21:00+30ссз473725 0.0 1010122
9 августа, пн
пн900:00+26зсз595596 0.3 1011218
03:00+24зюз596794 0.3 1012265
06:00+24зсз496516 0.0 1012343
09:00+30зсз56430 0.5 1013856
12:00+34з44320 0.0 10121807
15:00+37зсз33274 0.0 10112528
18:00+35сз332872 0.1 10111121
21:00+30юз3343100 2.5 101223